Location: Alsip
(41.6689°N, 87.7387°W)
Time: 14:20:40
(UTC+00:00)

NOSS 0 Rocket - Pass Details

Date: 14 July 2020
Orbit: 934 x 955 km, 70.0° (Epoch: 05 August)

Event Time Altitude Azimuth Distance (km) Brightness Sun altitude
Rises 01:50:44 0° 185° (S) 3,575 6.7 -4.9°
Reaches altitude 10° 01:53:20 10° 179° (S) 2,636 5.9 -5.3°
Maximum altitude 01:59:07 46° 108° (ESE) 1,237 4.2 -6.2°
Drops below altitude 10° 02:04:58 10° 37° (NE) 2,663 6.3 -7.1°
Sets 02:07:35 0° 31° (NNE) 3,614 7.1 -7.5°
